| time (UTC) | temp F | wind direction | speed MPH | gust MPH | rain 1hr in | rain 24hr in | rain mn in | humidity % | barometer mb |
| 20260906062007 | 62 | 114 | 0.0 | 0.0 | 0.00 | 0.00 | 0.00 | 77 | 1022.0 |
| 20260906061505 | 62 | 113 | 0.0 | 0.0 | 0.00 | 0.00 | 0.00 | 77 | 1022.0 |
| 20260906061006 | 62 | 113 | 0.0 | 0.0 | 0.00 | 0.00 | 0.00 | 76 | 1021.9 |
| 20260906060459 | 63 | 114 | 0.0 | 1.0 | 0.00 | 0.00 | 0.00 | 76 | 1021.9 |
| 20260906055957 | 63 | 114 | 0.0 | 1.0 | 0.00 | 0.00 | 0.00 | 75 | 1021.9 |
| 20260906055455 | 63 | 89 | 0.0 | 1.0 | 0.00 | 0.00 | 0.00 | 75 | 1021.9 |
| 20260906054953 | 63 | 17 | 0.0 | 1.0 | 0.00 | 0.00 | 0.00 | 74 | 1021.9 |
| 20260906054455 | 64 | 89 | 0.0 | 3.0 | 0.00 | 0.00 | 0.00 | 73 | 1021.9 |
| 20260906053951 | 64 | 89 | 0.0 | 3.0 | 0.00 | 0.00 | 0.00 | 73 | 1021.8 |
| 20260906053449 | 64 | 73 | 0.0 | 3.0 | 0.00 | 0.00 | 0.00 | 72 | 1021.9 |
| 20260906052947 | 63 | 34 | 0.0 | 3.0 | 0.00 | 0.00 | 0.00 | 74 | 1021.9 |
| 20260906052448 | 63 | 142 | 0.0 | 4.0 | 0.00 | 0.00 | 0.00 | 74 | 1022.0 |
| 20260906051947 | 64 | 141 | 0.0 | 4.0 | 0.00 | 0.00 | 0.00 | 73 | 1022.0 |
| 20260906051719 | 64 | 141 | 0.0 | 4.0 | 0.00 | 0.00 | 0.00 | 72 | 1022.0 |
| 20260906050945 | 65 | 76 | 0.0 | 4.0 | 0.00 | 0.00 | 0.00 | 71 | 1022.2 |
| 20260906050444 | 64 | 44 | 0.0 | 1.0 | 0.00 | 0.00 | 0.00 | 72 | 1022.3 |
| 20260906045944 | 65 | 119 | 0.0 | 1.0 | 0.00 | 0.00 | 0.00 | 71 | 1022.2 |
| 20260906045444 | 65 | 119 | 0.0 | 3.0 | 0.00 | 0.00 | 0.00 | 70 | 1022.2 |
| 20260906045211 | 66 | 100 | 0.0 | 3.0 | 0.00 | 0.00 | 0.00 | 68 | 1022.3 |
| 20260906044441 | 66 | 91 | 0.0 | 3.0 | 0.00 | 0.00 | 0.00 | 68 | 1022.3 |
| 20260906043935 | 66 | 72 | 0.0 | 3.0 | 0.00 | 0.00 | 0.00 | 68 | 1022.3 |
| 20260906043434 | 66 | 76 | 0.0 | 3.0 | 0.00 | 0.00 | 0.00 | 68 | 1022.3 |
| 20260906042933 | 66 | 79 | 0.0 | 4.0 | 0.00 | 0.00 | 0.00 | 68 | 1022.3 |
| 20260906042435 | 66 | 74 | 1.0 | 4.0 | 0.00 | 0.00 | 0.00 | 68 | 1022.3 |
| 20260906042206 | 66 | 45 | 1.0 | 5.0 | 0.00 | 0.00 | 0.00 | 68 | 1022.4 |
| 20260906041436 | 66 | 68 | 1.0 | 5.0 | 0.00 | 0.00 | 0.00 | 67 | 1022.4 |
| 20260906040927 | 66 | 84 | 0.0 | 7.0 | 0.00 | 0.00 | 0.00 | 67 | 1022.4 |
| 20260906040429 | 66 | 94 | 1.0 | 7.0 | 0.00 | 0.00 | 0.00 | 67 | 1022.3 |
| 20260906040201 | 66 | 67 | 2.0 | 7.0 | 0.00 | 0.00 | 0.00 | 67 | 1022.3 |
| 20260906035429 | 66 | 38 | 1.0 | 7.0 | 0.00 | 0.00 | 0.00 | 67 | 1022.3 |
| 20260906034929 | 66 | 43 | 0.0 | 5.0 | 0.00 | 0.00 | 0.00 | 67 | 1022.4 |
| 20260906034429 | 66 | 93 | 0.0 | 6.0 | 0.00 | 0.00 | 0.00 | 68 | 1022.3 |
| 20260906033924 | 66 | 25 | 0.0 | 6.0 | 0.00 | 0.00 | 0.00 | 69 | 1022.2 |
| 20260906033656 | 64 | 73 | 0.0 | 4.0 | 0.00 | 0.00 | 0.00 | 72 | 1022.2 |
| 20260906032923 | 63 | 253 | 0.0 | 0.0 | 0.00 | 0.00 | 0.00 | 74 | 1022.0 |
| 20260906032423 | 63 | 254 | 0.0 | 0.0 | 0.00 | 0.00 | 0.00 | 74 | 1022.0 |
| 20260906031923 | 64 | 254 | 0.0 | 0.0 | 0.00 | 0.00 | 0.00 | 74 | 1021.9 |
| 20260906031423 | 64 | 253 | 0.0 | 0.0 | 0.00 | 0.00 | 0.00 | 73 | 1021.8 |
| 20260906031150 | 64 | 254 | 0.0 | 0.0 | 0.00 | 0.00 | 0.00 | 73 | 1021.7 |
| 20260906030420 | 64 | 254 | 0.0 | 0.0 | 0.00 | 0.00 | 0.00 | 73 | 1021.7 |
| 20260906025915 | 65 | 254 | 0.0 | 0.0 | 0.00 | 0.00 | 0.00 | 73 | 1021.7 |
| 20260906025417 | 65 | 254 | 0.0 | 0.0 | 0.00 | 0.00 | 0.00 | 72 | 1021.7 |
| 20260906024917 | 65 | 253 | 0.0 | 0.0 | 0.00 | 0.00 | 0.00 | 71 | 1021.7 |
| 20260906024418 | 66 | 253 | 0.0 | 0.0 | 0.00 | 0.00 | 0.00 | 69 | 1021.7 |
| 20260906023911 | 66 | 253 | 0.0 | 0.0 | 0.00 | 0.00 | 0.00 | 69 | 1021.6 |
| 20260906023410 | 67 | 253 | 0.0 | 0.0 | 0.00 | 0.00 | 0.00 | 68 | 1021.5 |
| 20260906022907 | 67 | 254 | 0.0 | 0.0 | 0.00 | 0.00 | 0.00 | 65 | 1021.3 |
| 20260906022405 | 67 | 253 | 0.0 | 0.0 | 0.00 | 0.00 | 0.00 | 64 | 1021.3 |
| 20260906021906 | 68 | 253 | 0.0 | 0.0 | 0.00 | 0.00 | 0.00 | 63 | 1021.2 |
| 20260906021402 | 69 | 254 | 0.0 | 0.0 | 0.00 | 0.00 | 0.00 | 62 | 1021.3 |
| 20260906020901 | 69 | 254 | 0.0 | 0.0 | 0.00 | 0.00 | 0.00 | 60 | 1021.3 |
| 20260906020401 | 70 | 254 | 0.0 | 0.0 | 0.00 | 0.00 | 0.00 | 60 | 1021.3 |
| 20260906015902 | 70 | 254 | 0.0 | 0.0 | 0.00 | 0.00 | 0.00 | 58 | 1021.5 |
| 20260906015400 | 71 | 254 | 0.0 | 0.0 | 0.00 | 0.00 | 0.00 | 58 | 1021.5 |
| 20260906015129 | 71 | 254 | 0.0 | 0.0 | 0.00 | 0.00 | 0.00 | 58 | 1021.5 |
| 20260906014353 | 72 | 254 | 0.0 | 0.0 | 0.00 | 0.00 | 0.00 | 56 | 1021.5 |
| 20260906013852 | 72 | 254 | 0.0 | 1.0 | 0.00 | 0.00 | 0.00 | 56 | 1021.6 |
| 20260906013124 | 73 | 254 | 0.0 | 1.0 | 0.00 | 0.00 | 0.00 | 53 | 1021.6 |
| 20260906012625 | 74 | 254 | 0.0 | 2.0 | 0.00 | 0.00 | 0.00 | 52 | 1021.7 |
| 20260906011853 | 74 | 254 | 0.0 | 2.0 | 0.00 | 0.00 | 0.00 | 52 | 1021.7 |
| 20260906011351 | 74 | 254 | 0.0 | 4.0 | 0.00 | 0.00 | 0.00 | 51 | 1021.7 |
| 20260906010849 | 75 | 254 | 0.0 | 4.0 | 0.00 | 0.00 | 0.00 | 50 | 1021.6 |
| 20260906010349 | 75 | 254 | 0.0 | 5.0 | 0.00 | 0.00 | 0.00 | 50 | 1021.7 |
| 20260906005850 | 75 | 254 | 1.0 | 5.0 | 0.00 | 0.00 | 0.00 | 49 | 1021.7 |
| 20260906005619 | 76 | 255 | 1.0 | 7.0 | 0.00 | 0.00 | 0.00 | 49 | 1021.7 |
| 20260906004848 | 76 | 270 | 1.0 | 7.0 | 0.00 | 0.00 | 0.00 | 49 | 1021.7 |
| 20260906004613 | 76 | 330 | 2.0 | 8.0 | 0.00 | 0.00 | 0.00 | 48 | 1021.5 |
| 20260906003840 | 77 | 259 | 2.0 | 8.0 | 0.00 | 0.00 | 0.00 | 48 | 1021.6 |
| 20260906003341 | 77 | 252 | 3.0 | 6.0 | 0.00 | 0.00 | 0.00 | 47 | 1021.6 |
| 20260906002841 | 78 | 280 | 2.0 | 6.0 | 0.00 | 0.00 | 0.00 | 45 | 1021.6 |
| 20260906002341 | 79 | 257 | 2.0 | 8.0 | 0.00 | 0.00 | 0.00 | 45 | 1021.6 |
| 20260906001841 | 79 | 234 | 2.0 | 8.0 | 0.00 | 0.00 | 0.00 | 44 | 1021.3 |
| 20260906001335 | 79 | 261 | 3.0 | 8.0 | 0.00 | 0.00 | 0.00 | 45 | 1021.3 |
| 20260906000835 | 79 | 242 | 4.0 | 9.0 | 0.00 | 0.00 | 0.00 | 44 | 1021.3 |
| 20260906000608 | 79 | 268 | 3.0 | 9.0 | 0.00 | 0.00 | 0.00 | 43 | 1021.3 |
| 20260905235835 | 79 | 219 | 2.0 | 6.0 | 0.00 | 0.00 | 0.00 | 44 | 1021.3 |
| 20260905235335 | 79 | 268 | 1.0 | 6.0 | 0.00 | 0.00 | 0.00 | 43 | 1021.3 |
| 20260905234835 | 80 | 228 | 2.0 | 6.0 | 0.00 | 0.00 | 0.00 | 43 | 1021.3 |
| 20260905234328 | 80 | 181 | 2.0 | 7.0 | 0.00 | 0.00 | 0.00 | 41 | 1021.3 |
| 20260905233829 | 81 | 262 | 2.0 | 7.0 | 0.00 | 0.00 | 0.00 | 41 | 1021.3 |
| 20260905233330 | 82 | 252 | 2.0 | 7.0 | 0.00 | 0.00 | 0.00 | 40 | 1021.2 |
| 20260905232829 | 82 | 258 | 2.0 | 7.0 | 0.00 | 0.00 | 0.00 | 41 | 1021.3 |
| 20260905232330 | 81 | 257 | 2.0 | 9.0 | 0.00 | 0.00 | 0.00 | 41 | 1021.3 |
| 20260905231830 | 81 | 192 | 2.0 | 9.0 | 0.00 | 0.00 | 0.00 | 41 | 1021.5 |
| 20260905231554 | 81 | 269 | 3.0 | 10.0 | 0.00 | 0.00 | 0.00 | 41 | 1021.5 |
| 20260905230822 | 81 | 289 | 2.0 | 10.0 | 0.00 | 0.00 | 0.00 | 40 | 1021.5 |
| 20260905230323 | 82 | 202 | 2.0 | 8.0 | 0.00 | 0.00 | 0.00 | 40 | 1021.3 |
| 20260905225823 | 82 | 205 | 2.0 | 8.0 | 0.00 | 0.00 | 0.00 | 40 | 1021.5 |
| 20260905225322 | 82 | 296 | 2.0 | 8.0 | 0.00 | 0.00 | 0.00 | 38 | 1021.5 |
| 20260905224820 | 82 | 239 | 2.0 | 7.0 | 0.00 | 0.00 | 0.00 | 40 | 1021.5 |
| 20260905224317 | 82 | 226 | 3.0 | 8.0 | 0.00 | 0.00 | 0.00 | 40 | 1021.5 |
| 20260905224047 | 81 | 197 | 3.0 | 8.0 | 0.00 | 0.00 | 0.00 | 40 | 1021.6 |
| 20260905223315 | 82 | 272 | 2.0 | 8.0 | 0.00 | 0.00 | 0.00 | 39 | 1021.6 |
| 20260905222816 | 82 | 248 | 2.0 | 9.0 | 0.00 | 0.00 | 0.00 | 40 | 1021.6 |
| 20260905222315 | 81 | 185 | 3.0 | 9.0 | 0.00 | 0.00 | 0.00 | 41 | 1021.6 |
| 20260905221815 | 80 | 251 | 3.0 | 9.0 | 0.00 | 0.00 | 0.00 | 41 | 1021.7 |
| 20260905221312 | 81 | 250 | 2.0 | 9.0 | 0.00 | 0.00 | 0.00 | 39 | 1021.7 |
| 20260905220812 | 82 | 264 | 2.0 | 9.0 | 0.00 | 0.00 | 0.00 | 40 | 1021.8 |
| 20260905220313 | 82 | 247 | 2.0 | 10.0 | 0.00 | 0.00 | 0.00 | 38 | 1021.8 |
| 20260905215811 | 83 | 273 | 1.0 | 10.0 | 0.00 | 0.00 | 0.00 | 37 | 1021.8 |
| 20260905215310 | 83 | 227 | 3.0 | 9.0 | 0.00 | 0.00 | 0.00 | 40 | 1021.9 |
| 20260905214811 | 82 | 269 | 3.0 | 9.0 | 0.00 | 0.00 | 0.00 | 40 | 1021.8 |
| 20260905214307 | 82 | 245 | 2.0 | 8.0 | 0.00 | 0.00 | 0.00 | 40 | 1021.9 |
| 20260905213805 | 81 | 240 | 3.0 | 8.0 | 0.00 | 0.00 | 0.00 | 40 | 1022.0 |
| 20260905213305 | 82 | 262 | 3.0 | 9.0 | 0.00 | 0.00 | 0.00 | 40 | 1022.0 |
| 20260905212805 | 81 | 230 | 2.0 | 9.0 | 0.00 | 0.00 | 0.00 | 43 | 1022.0 |
| 20260905212306 | 81 | 74 | 2.0 | 10.0 | 0.00 | 0.00 | 0.00 | 40 | 1022.0 |
| 20260905212034 | 81 | 277 | 2.0 | 10.0 | 0.00 | 0.00 | 0.00 | 41 | 1022.2 |
| 20260905211302 | 81 | 213 | 3.0 | 11.0 | 0.00 | 0.00 | 0.00 | 41 | 1022.2 |
| 20260905210800 | 80 | 180 | 3.0 | 11.0 | 0.00 | 0.00 | 0.00 | 42 | 1022.3 |
| 20260905210301 | 80 | 145 | 2.0 | 9.0 | 0.00 | 0.00 | 0.00 | 42 | 1022.3 |
| 20260905210031 | 80 | 299 | 2.0 | 12.0 | 0.00 | 0.00 | 0.00 | 41 | 1022.4 |
| 20260905205258 | 81 | 242 | 2.0 | 12.0 | 0.00 | 0.00 | 0.00 | 41 | 1022.4 |
| 20260905204757 | 81 | 216 | 3.0 | 13.0 | 0.00 | 0.00 | 0.00 | 42 | 1022.5 |
| 20260905204253 | 81 | 252 | 3.0 | 13.0 | 0.00 | 0.00 | 0.00 | 42 | 1022.5 |
| 20260905203753 | 81 | 262 | 2.0 | 9.0 | 0.00 | 0.00 | 0.00 | 41 | 1022.5 |
| 20260905203253 | 81 | 150 | 2.0 | 10.0 | 0.00 | 0.00 | 0.00 | 41 | 1022.6 |
| 20260905202754 | 81 | 242 | 2.0 | 10.0 | 0.00 | 0.00 | 0.00 | 40 | 1022.8 |
| 20260905202251 | 81 | 152 | 3.0 | 11.0 | 0.00 | 0.00 | 0.00 | 41 | 1022.8 |
| 20260905201753 | 81 | 242 | 3.0 | 11.0 | 0.00 | 0.00 | 0.00 | 40 | 1022.8 |
| 20260905201247 | 81 | 226 | 2.0 | 10.0 | 0.00 | 0.00 | 0.00 | 41 | 1022.9 |
| 20260905200746 | 80 | 145 | 3.0 | 10.0 | 0.00 | 0.00 | 0.00 | 41 | 1022.9 |
| 20260905200247 | 81 | 262 | 4.0 | 11.0 | 0.00 | 0.00 | 0.00 | 41 | 1022.9 |
| 20260905195747 | 81 | 237 | 4.0 | 11.0 | 0.00 | 0.00 | 0.00 | 40 | 1023.1 |
| 20260905195246 | 81 | 88 | 4.0 | 9.0 | 0.00 | 0.00 | 0.00 | 42 | 1023.0 |
| 20260905194745 | 81 | 278 | 3.0 | 8.0 | 0.00 | 0.00 | 0.00 | 40 | 1023.1 |
| 20260905194238 | 80 | 209 | 2.0 | 7.0 | 0.00 | 0.00 | 0.00 | 41 | 1023.1 |
| 20260905193737 | 80 | 171 | 2.0 | 8.0 | 0.00 | 0.00 | 0.00 | 41 | 1023.2 |
| 20260905193235 | 80 | 162 | 2.0 | 11.0 | 0.00 | 0.00 | 0.00 | 42 | 1023.2 |
| 20260905192733 | 81 | 240 | 2.0 | 11.0 | 0.00 | 0.00 | 0.00 | 40 | 1023.2 |
| 20260905192233 | 81 | 230 | 3.0 | 11.0 | 0.00 | 0.00 | 0.00 | 40 | 1023.4 |
| 20260905191729 | 81 | 175 | 3.0 | 11.0 | 0.00 | 0.00 | 0.00 | 42 | 1023.4 |
| 20260905191229 | 80 | 226 | 3.0 | 10.0 | 0.00 | 0.00 | 0.00 | 42 | 1023.5 |
| 20260905190729 | 80 | 285 | 2.0 | 10.0 | 0.00 | 0.00 | 0.00 | 41 | 1023.5 |
| 20260905190229 | 80 | 77 | 3.0 | 9.0 | 0.00 | 0.00 | 0.00 | 40 | 1023.5 |
| 20260905185959 | 80 | 167 | 3.0 | 10.0 | 0.00 | 0.00 | 0.00 | 42 | 1023.6 |
| 20260905185459 | 80 | 258 | 3.0 | 10.0 | 0.00 | 0.00 | 0.00 | 40 | 1023.6 |
| 20260905184724 | 80 | 275 | 3.0 | 10.0 | 0.00 | 0.00 | 0.00 | 38 | 1023.6 |
| 20260905184223 | 80 | 268 | 2.0 | 10.0 | 0.00 | 0.00 | 0.00 | 41 | 1023.7 |
| 20260905183723 | 80 | 254 | 2.0 | 9.0 | 0.00 | 0.00 | 0.00 | 42 | 1023.8 |
| 20260905183224 | 80 | 145 | 3.0 | 9.0 | 0.00 | 0.00 | 0.00 | 40 | 1023.7 |
| 20260905182722 | 80 | 252 | 3.0 | 9.0 | 0.00 | 0.00 | 0.00 | 39 | 1023.7 |
| 20260905182223 | 80 | 228 | 2.0 | 9.0 | 0.00 | 0.00 | 0.00 | 41 | 1023.8 |
| 20260905181717 | 79 | 212 | 3.0 | 9.0 | 0.00 | 0.00 | 0.00 | 41 | 1023.8 |
| 20260905181216 | 79 | 188 | 3.0 | 9.0 | 0.00 | 0.00 | 0.00 | 41 | 1023.9 |
| 20260905180717 | 80 | 275 | 2.0 | 8.0 | 0.00 | 0.00 | 0.00 | 40 | 1023.9 |
| 20260905180218 | 79 | 151 | 2.0 | 7.0 | 0.00 | 0.00 | 0.00 | 41 | 1023.8 |
| 20260905175715 | 79 | 286 | 2.0 | 7.0 | 0.00 | 0.00 | 0.00 | 41 | 1023.8 |
| 20260905175215 | 79 | 251 | 3.0 | 7.0 | 0.00 | 0.00 | 0.00 | 40 | 1023.8 |
| 20260905174711 | 79 | 110 | 3.0 | 7.0 | 0.00 | 0.00 | 0.00 | 41 | 1023.9 |
| 20260905174443 | 79 | 167 | 3.0 | 7.0 | 0.00 | 0.00 | 0.00 | 41 | 1024.1 |
| 20260905173712 | 79 | 210 | 2.0 | 6.0 | 0.00 | 0.00 | 0.00 | 41 | 1024.1 |
| 20260905173212 | 78 | 150 | 2.0 | 7.0 | 0.00 | 0.00 | 0.00 | 43 | 1024.1 |
| 20260905172209 | 78 | 158 | 2.0 | 8.0 | 0.00 | 0.00 | 0.00 | 41 | 1024.1 |
| 20260905171206 | 78 | 279 | 2.0 | 9.0 | 0.00 | 0.00 | 0.00 | 37 | 1023.9 |
| 20260905170705 | 78 | 141 | 2.0 | 9.0 | 0.00 | 0.00 | 0.00 | 41 | 1024.1 |
| 20260905170436 | 77 | 233 | 2.0 | 4.0 | 0.00 | 0.00 | 0.00 | 41 | 1023.9 |
| 20260905165704 | 77 | 89 | 2.0 | 5.0 | 0.00 | 0.00 | 0.00 | 39 | 1024.1 |
| 20260905165204 | 78 | 276 | 1.0 | 5.0 | 0.00 | 0.00 | 0.00 | 42 | 1024.1 |
| 20260905164701 | 77 | 257 | 1.0 | 5.0 | 0.00 | 0.00 | 0.00 | 42 | 1023.8 |
| 20260905164159 | 77 | 147 | 2.0 | 5.0 | 0.00 | 0.00 | 0.00 | 45 | 1023.8 |
| 20260905163931 | 76 | 129 | 2.0 | 6.0 | 0.00 | 0.00 | 0.00 | 46 | 1023.7 |
| 20260905163430 | 76 | 96 | 3.0 | 6.0 | 0.00 | 0.00 | 0.00 | 47 | 1023.7 |
| 20260905162658 | 76 | 79 | 2.0 | 6.0 | 0.00 | 0.00 | 0.00 | 47 | 1023.7 |
| 20260905162156 | 76 | 81 | 1.0 | 6.0 | 0.00 | 0.00 | 0.00 | 48 | 1023.7 |
| 20260905161651 | 77 | 86 | 1.0 | 6.0 | 0.00 | 0.00 | 0.00 | 48 | 1023.7 |
| 20260905161149 | 76 | 177 | 2.0 | 6.0 | 0.00 | 0.00 | 0.00 | 51 | 1023.7 |
| 20260905160919 | 75 | 155 | 3.0 | 6.0 | 0.00 | 0.00 | 0.00 | 52 | 1023.7 |
| 20260905160146 | 75 | 102 | 1.0 | 5.0 | 0.00 | 0.00 | 0.00 | 49 | 1023.7 |
| 20260905155645 | 75 | 152 | 0.0 | 3.0 | 0.00 | 0.00 | 0.00 | 50 | 1023.7 |
| 20260905155140 | 74 | 193 | 2.0 | 5.0 | 0.00 | 0.00 | 0.00 | 53 | 1023.7 |
| 20260905154641 | 73 | 110 | 2.0 | 5.0 | 0.00 | 0.00 | 0.00 | 54 | 1023.6 |
| 20260905154139 | 73 | 92 | 2.0 | 4.0 | 0.00 | 0.00 | 0.00 | 57 | 1023.6 |
| 20260905153639 | 73 | 78 | 2.0 | 4.0 | 0.00 | 0.00 | 0.00 | 57 | 1023.7 |
| 20260905153139 | 72 | 82 | 2.0 | 4.0 | 0.00 | 0.00 | 0.00 | 56 | 1023.6 |
| 20260905152639 | 72 | 88 | 2.0 | 4.0 | 0.00 | 0.00 | 0.00 | 61 | 1023.6 |
| 20260905152135 | 71 | 77 | 2.0 | 4.0 | 0.00 | 0.00 | 0.00 | 61 | 1023.6 |
| 20260905151635 | 71 | 98 | 2.0 | 5.0 | 0.00 | 0.00 | 0.00 | 61 | 1023.7 |
| 20260905151135 | 71 | 88 | 2.0 | 5.0 | 0.00 | 0.00 | 0.00 | 64 | 1023.7 |
| 20260905150635 | 70 | 53 | 1.0 | 5.0 | 0.00 | 0.00 | 0.00 | 63 | 1023.7 |
| 20260905150134 | 69 | 77 | 0.0 | 3.0 | 0.00 | 0.00 | 0.00 | 66 | 1023.7 |
| 20260905145634 | 69 | 109 | 0.0 | 4.0 | 0.00 | 0.00 | 0.00 | 68 | 1023.7 |
| 20260905145132 | 68 | 85 | 0.0 | 4.0 | 0.00 | 0.00 | 0.00 | 72 | 1023.7 |
| 20260905144629 | 66 | 72 | 1.0 | 4.0 | 0.00 | 0.00 | 0.00 | 70 | 1023.6 |
| 20260905144127 | 65 | 45 | 1.0 | 4.0 | 0.00 | 0.00 | 0.00 | 72 | 1023.6 |
| 20260905143627 | 65 | 110 | 1.0 | 5.0 | 0.00 | 0.00 | 0.00 | 74 | 1023.6 |
| 20260905143127 | 64 | 103 | 1.0 | 5.0 | 0.00 | 0.00 | 0.00 | 75 | 1023.5 |
| 20260905142626 | 63 | 58 | 2.0 | 7.0 | 0.00 | 0.00 | 0.00 | 76 | 1023.5 |
| 20260905142124 | 62 | 74 | 3.0 | 7.0 | 0.00 | 0.00 | 0.00 | 77 | 1023.4 |
| 20260905141623 | 62 | 27 | 3.0 | 6.0 | 0.00 | 0.00 | 0.00 | 78 | 1023.4 |
| 20260905141354 | 61 | 29 | 3.0 | 7.0 | 0.00 | 0.00 | 0.00 | 79 | 1023.4 |
| 20260905140855 | 60 | 88 | 3.0 | 7.0 | 0.00 | 0.00 | 0.00 | 80 | 1023.2 |
| 20260905140122 | 60 | 102 | 3.0 | 7.0 | 0.00 | 0.00 | 0.00 | 81 | 1023.2 |
| 20260905135621 | 59 | 96 | 1.0 | 6.0 | 0.00 | 0.00 | 0.00 | 83 | 1023.2 |
| 20260905135117 | 58 | 100 | 0.0 | 6.0 | 0.00 | 0.00 | 0.00 | 83 | 1023.1 |
| 20260905134616 | 58 | 100 | 2.0 | 7.0 | 0.00 | 0.00 | 0.00 | 83 | 1023.1 |
| 20260905134117 | 58 | 119 | 3.0 | 8.0 | 0.00 | 0.00 | 0.00 | 84 | 1023.0 |
| 20260905133617 | 57 | 88 | 3.0 | 8.0 | 0.00 | 0.00 | 0.00 | 86 | 1022.9 |
| 20260905133347 | 56 | 96 | 3.0 | 8.0 | 0.00 | 0.00 | 0.00 | 87 | 1022.8 |
| 20260905132617 | 55 | 91 | 3.0 | 5.0 | 0.00 | 0.00 | 0.00 | 89 | 1022.6 |
| 20260905132108 | 55 | 91 | 3.0 | 5.0 | 0.00 | 0.00 | 0.00 | 89 | 1022.6 |
| 20260905131607 | 55 | 100 | 4.0 | 6.0 | 0.00 | 0.00 | 0.00 | 88 | 1022.6 |
| 20260905131105 | 55 | 100 | 3.0 | 6.0 | 0.00 | 0.00 | 0.00 | 89 | 1022.5 |
| 20260905130603 | 54 | 114 | 2.0 | 5.0 | 0.00 | 0.00 | 0.00 | 89 | 1022.5 |
| 20260905130104 | 54 | 96 | 2.0 | 5.0 | 0.00 | 0.00 | 0.00 | 88 | 1022.3 |
| 20260905125059 | 55 | 116 | 3.0 | 6.0 | 0.00 | 0.00 | 0.00 | 88 | 1022.3 |
| 20260905124559 | 54 | 103 | 3.0 | 6.0 | 0.00 | 0.00 | 0.00 | 89 | 1022.4 |
| 20260905124059 | 54 | 96 | 1.0 | 6.0 | 0.00 | 0.00 | 0.00 | 89 | 1022.3 |
| 20260905123558 | 54 | 98 | 1.0 | 5.0 | 0.00 | 0.00 | 0.00 | 88 | 1022.3 |
| 20260905123057 | 54 | 131 | 1.0 | 5.0 | 0.00 | 0.00 | 0.00 | 87 | 1022.3 |
| 20260905122552 | 55 | 88 | 2.0 | 5.0 | 0.00 | 0.00 | 0.00 | 86 | 1022.3 |
| 20260905122050 | 55 | 110 | 3.0 | 5.0 | 0.00 | 0.00 | 0.00 | 86 | 1022.3 |
| 20260905121548 | 56 | 105 | 4.0 | 7.0 | 0.00 | 0.00 | 0.00 | 85 | 1022.2 |
| 20260905121319 | 56 | 86 | 4.0 | 7.0 | 0.00 | 0.00 | 0.00 | 86 | 1022.3 |
| 20260905120819 | 56 | 100 | 4.0 | 7.0 | 0.00 | 0.00 | 0.00 | 86 | 1022.2 |
| 20260905120048 | 56 | 93 | 4.0 | 7.0 | 0.00 | 0.00 | 0.00 | 86 | 1022.2 |
| 20260905115543 | 56 | 86 | 4.0 | 6.0 | 0.00 | 0.00 | 0.00 | 87 | 1022.0 |
| 20260905115043 | 55 | 90 | 4.0 | 6.0 | 0.00 | 0.00 | 0.00 | 88 | 1022.0 |
| 20260905114545 | 55 | 81 | 4.0 | 6.0 | 0.00 | 0.00 | 0.00 | 89 | 1022.0 |
| 20260905114043 | 55 | 86 | 3.0 | 5.0 | 0.00 | 0.00 | 0.00 | 89 | 1022.0 |
| 20260905113544 | 54 | 110 | 1.0 | 5.0 | 0.00 | 0.00 | 0.00 | 88 | 1022.0 |
| 20260905113043 | 55 | 144 | 2.0 | 4.0 | 0.00 | 0.00 | 0.00 | 87 | 1022.0 |
| 20260905112537 | 55 | 81 | 2.0 | 7.0 | 0.00 | 0.00 | 0.00 | 87 | 1022.0 |
| 20260905112037 | 56 | 100 | 3.0 | 7.0 | 0.00 | 0.00 | 0.00 | 86 | 1021.9 |
| 20260905111809 | 56 | 105 | 3.0 | 8.0 | 0.00 | 0.00 | 0.00 | 86 | 1021.9 |
| 20260905111037 | 56 | 90 | 3.0 | 8.0 | 0.00 | 0.00 | 0.00 | 87 | 1022.0 |
| 20260905110539 | 55 | 81 | 3.0 | 6.0 | 0.00 | 0.00 | 0.00 | 89 | 1021.9 |
| 20260905110038 | 55 | 74 | 3.0 | 5.0 | 0.00 | 0.00 | 0.00 | 89 | 1021.9 |
| 20260905105031 | 54 | 111 | 1.0 | 6.0 | 0.00 | 0.00 | 0.00 | 90 | 1021.9 |
| 20260905104531 | 54 | 117 | 1.0 | 5.0 | 0.00 | 0.00 | 0.00 | 90 | 1021.9 |
| 20260905104031 | 54 | 111 | 2.0 | 5.0 | 0.00 | 0.00 | 0.00 | 90 | 1021.9 |
| 20260905103531 | 54 | 103 | 1.0 | 4.0 | 0.00 | 0.00 | 0.00 | 90 | 1021.9 |
| 20260905103032 | 54 | 115 | 0.0 | 4.0 | 0.00 | 0.00 | 0.00 | 90 | 1021.9 |
| 20260905102525 | 54 | 124 | 1.0 | 3.0 | 0.00 | 0.00 | 0.00 | 90 | 1021.9 |
| 20260905102257 | 54 | 110 | 1.0 | 4.0 | 0.00 | 0.00 | 0.00 | 90 | 1021.9 |
| 20260905101526 | 54 | 105 | 1.0 | 4.0 | 0.00 | 0.00 | 0.00 | 90 | 1021.9 |
| 20260905101026 | 54 | 102 | 1.0 | 3.0 | 0.00 | 0.00 | 0.00 | 90 | 1021.9 |
| 20260905100526 | 54 | 107 | 0.0 | 3.0 | 0.00 | 0.00 | 0.00 | 90 | 1021.9 |
| 20260905100025 | 54 | 109 | 0.0 | 2.0 | 0.00 | 0.00 | 0.00 | 90 | 1021.9 |
| 20260905095523 | 54 | 109 | 0.0 | 2.0 | 0.00 | 0.00 | 0.00 | 90 | 1021.9 |
| 20260905095023 | 54 | 109 | 0.0 | 2.0 | 0.00 | 0.00 | 0.00 | 90 | 1021.9 |
| 20260905094523 | 54 | 105 | 0.0 | 1.0 | 0.00 | 0.00 | 0.00 | 90 | 1021.9 |
| 20260905094022 | 54 | 105 | 0.0 | 1.0 | 0.00 | 0.00 | 0.00 | 90 | 1021.9 |
| 20260905093520 | 54 | 105 | 0.0 | 1.0 | 0.00 | 0.00 | 0.00 | 89 | 1022.0 |
| 20260905093021 | 55 | 105 | 0.0 | 1.0 | 0.00 | 0.00 | 0.00 | 89 | 1022.0 |
| 20260905092514 | 55 | 105 | 0.0 | 1.0 | 0.00 | 0.00 | 0.00 | 89 | 1021.9 |
| 20260905092011 | 55 | 105 | 0.0 | 1.0 | 0.00 | 0.00 | 0.00 | 89 | 1022.0 |
| 20260905091509 | 55 | 105 | 0.0 | 0.0 | 0.00 | 0.00 | 0.00 | 89 | 1022.0 |
| 20260905091007 | 55 | 105 | 0.0 | 1.0 | 0.00 | 0.00 | 0.00 | 88 | 1021.9 |
| 20260905090508 | 55 | 105 | 0.0 | 0.0 | 0.00 | 0.00 | 0.00 | 88 | 1021.9 |
| 20260905090233 | 55 | 105 | 0.0 | 1.0 | 0.00 | 0.00 | 0.00 | 88 | 1022.0 |
| 20260905085459 | 55 | 105 | 0.0 | 1.0 | 0.00 | 0.00 | 0.00 | 88 | 1022.0 |
| 20260905084957 | 56 | 105 | 0.0 | 1.0 | 0.00 | 0.00 | 0.00 | 88 | 1022.0 |
| 20260905084455 | 56 | 105 | 0.0 | 1.0 | 0.00 | 0.00 | 0.00 | 88 | 1022.0 |
| 20260905084227 | 56 | 105 | 0.0 | 1.0 | 0.00 | 0.00 | 0.00 | 88 | 1022.0 |
| 20260905083454 | 56 | 105 | 0.0 | 2.0 | 0.00 | 0.00 | 0.00 | 88 | 1022.2 |
| 20260905082951 | 56 | 105 | 0.0 | 2.0 | 0.00 | 0.00 | 0.00 | 88 | 1022.3 |
| 20260905082722 | 56 | 105 | 0.0 | 2.0 | 0.00 | 0.00 | 0.00 | 88 | 1022.3 |
| 20260905081951 | 56 | 105 | 0.0 | 1.0 | 0.00 | 0.00 | 0.00 | 88 | 1022.3 |
| 20260905081450 | 56 | 143 | 0.0 | 1.0 | 0.00 | 0.00 | 0.00 | 87 | 1022.3 |
| 20260905080949 | 56 | 143 | 0.0 | 1.0 | 0.00 | 0.00 | 0.00 | 87 | 1022.3 |
| 20260905080442 | 56 | 143 | 0.0 | 1.0 | 0.00 | 0.00 | 0.00 | 86 | 1022.3 |
| 20260905080214 | 56 | 143 | 0.0 | 1.0 | 0.00 | 0.00 | 0.00 | 86 | 1022.3 |
| 20260905075439 | 56 | 143 | 0.0 | 1.0 | 0.00 | 0.00 | 0.00 | 86 | 1022.3 |
| 20260905075209 | 56 | 143 | 0.0 | 1.0 | 0.00 | 0.00 | 0.00 | 86 | 1022.3 |
| 20260905074707 | 57 | 143 | 0.0 | 1.0 | 0.00 | 0.00 | 0.00 | 86 | 1022.3 |
| 20260905073932 | 56 | 143 | 0.0 | 1.0 | 0.00 | 0.00 | 0.00 | 86 | 1022.3 |
| 20260905073429 | 56 | 143 | 0.0 | 1.0 | 0.00 | 0.00 | 0.00 | 86 | 1022.3 |
| 20260905072426 | 56 | 143 | 0.0 | 1.0 | 0.00 | 0.00 | 0.00 | 85 | 1022.3 |
| 20260905071925 | 57 | 143 | 0.0 | 1.0 | 0.00 | 0.00 | 0.00 | 85 | 1022.3 |
| 20260905071421 | 57 | 143 | 0.0 | 1.0 | 0.00 | 0.00 | 0.00 | 85 | 1022.3 |
| 20260905070921 | 57 | 143 | 0.0 | 1.0 | 0.00 | 0.00 | 0.00 | 85 | 1022.3 |
| 20260905070419 | 57 | 143 | 0.0 | 1.0 | 0.00 | 0.00 | 0.00 | 85 | 1022.3 |
| 20260905065919 | 57 | 143 | 0.0 | 1.0 | 0.00 | 0.00 | 0.00 | 84 | 1022.3 |
| 20260905065417 | 57 | 143 | 0.0 | 1.0 | 0.00 | 0.00 | 0.00 | 84 | 1022.3 |
| 20260905064917 | 57 | 143 | 0.0 | 1.0 | 0.00 | 0.00 | 0.00 | 84 | 1022.3 |
| 20260905064416 | 57 | 143 | 0.0 | 1.0 | 0.00 | 0.00 | 0.00 | 83 | 1022.3 |
| 20260905063914 | 58 | 143 | 0.0 | 1.0 | 0.00 | 0.00 | 0.00 | 83 | 1022.3 |
| 20260905063414 | 58 | 143 | 0.0 | 1.0 | 0.00 | 0.00 | 0.00 | 83 | 1022.2 |
| 20260905063144 | 58 | 143 | 0.0 | 1.0 | 0.00 | 0.00 | 0.00 | 83 | 1022.2 |
| 20260905062411 | 58 | 143 | 0.0 | 1.0 | 0.00 | 0.00 | 0.00 | 83 | 1022.2 |